{"data":{"norad_id":66595,"intl_designator":"2025-270H","name":"STARLINK-35711","alt_names":[],"object_type":"PAYLOAD","status":"ACTIVE","operator":null,"country":"US","launch_date":"2025-11-22","launch_site_code":"AFETR","launch_vehicle":null,"mission":null,"orbit_class":"UNKNOWN","rcs_meters":null,"size_class":null,"mass_kg":null,"dimensions":null,"purposes":["comms"],"wikipedia_slug":null,"has_3d_model":false,"image_url":null,"decayed_at":null,"tle_current":{"epoch":"2026-05-24T21:42:45.355104Z","epoch_age_seconds":93843,"freshness":"FRESH","line1":"1 66595U 25270H   26144.90469161  .00020086  00000+0  73688-3 0  9990","line2":"2 66595  43.0046 345.6118 0002246 261.9597  98.1000 15.27604615 29478","mean_motion":15.27604615,"eccentricity":0.0002246,"inclination_deg":43.0046,"raan_deg":345.6118,"arg_perigee_deg":261.9597,"mean_anomaly_deg":98.1,"bstar":0.00073688,"rev_number":2947,"period_min":94.265229749911,"perigee_km":481.43438502119,"apogee_km":484.51639670716,"semimajor_km":6861.1123908642,"source":"CELESTRAK","updated_at":"2026-05-25T13:38:21.288245Z"}}}